Regional Weather Roundup
Issued by NWS Northern Indiana

Home | Current Version | Previous Version | Graphics & Text | Print | Product List | Glossary On
Versions: 1 2 3 4 5 6 7 8 9 10 11 12 13 14 15 16 17 18 19 20 21 22 23 24 25 26 27 28 29 30 31 32 33 34 35 36 37 38 39 40 41 42 43 44 45 46 47 48 49 50
000
ASUS43 KIWX 251110
RWRIWX

KIWX WEATHER ROUNDUP
NATIONAL WEATHER SERVICE NORTHERN INDIANA
700 AM EDT TUE JUL 25 2017

NOTE: "FAIR" INDICATES FEW OR NO CLOUDS BELOW 12,000 FEET WITH NO
SIGNIFICANT WEATHER AND/OR OBSTRUCTIONS TO VISIBILITY.

* THESE STATIONS ARE NOT UNDER NWS QUALITY CONTROL. THEY ALSO MAY NOT
  REPORT WEATHER SUCH AS PRECIPITATION OR FOG.

INZ001>027-251200-
NORTHERN INDIANA

CITY           SKY/WX    TMP DP  RH WIND       PRES   REMARKS
GARY*          PTCLDY    61  59  94 CALM      30.18R
VALPARAISO     FOG       57  57 100 NE5       30.19R VSB 1/4
MICHIGAN CITY*   N/A     54  54 100 CALM      30.20R FOG
LAPORTE*       CLOUDY    56  55  99 CALM      30.20R FOG
KNOX*            N/A     55  55 100 CALM      30.19R VSB 1
SOUTH BEND     CLEAR     57  57 100 E3        30.21R
ELKHART*       CLEAR     57  55  94 CALM      30.21  FOG
GOSHEN         CLEAR     54  52  93 CALM      30.20R FOG
MONTICELLO*    CLEAR     58  57  96 CALM      30.17R
LOGANSPORT*    CLEAR     59  59 100 CALM      30.19R
ROCHESTER*     CLEAR     57  57 100 CALM      30.20R FOG
WARSAW*        CLEAR     55  54  94 CALM      30.21R
AUBURN*        CLEAR     55  52  88 CALM      30.21R
FORT WAYNE     PTCLDY    56  54  93 CALM      30.20R
HUNTINGTON*    CLEAR     55  54  95 CALM      30.19R FOG
PERU/GRISSOM   PTCLDY    57  57 100 NE5       30.18R
MARION*        CLEAR     55  55 100 NE3       30.19S FOG

$$
INZ028>050-251200-
CENTRAL INDIANA

CITY           SKY/WX    TMP DP  RH WIND       PRES   REMARKS
LAFAYETTE      CLEAR     58  57  97 NE6       30.16R
KOKOMO*        CLEAR     57  56  96 NE6       30.19R
MUNCIE*        CLEAR     56  53  90 CALM      30.19R
INDIANAPOLIS   PTCLDY    63  57  81 E9        30.16R

$$
MIZ043>046-050>051-056>058-064>065-071>073-077>080-251200-
SOUTHWEST LOWER MICHIGAN

CITY           SKY/WX    TMP DP  RH WIND       PRES   REMARKS
BATTLE CREEK   CLEAR     55  54  96 CALM      30.21R
BENTON HARBOR  CLEAR     55  52  89 SE5       30.19R
COLDWATER*     CLEAR     53  53 100 CALM      30.21R
HILLSDALE*     CLEAR     50  48  93 CALM      30.20R
HOLLAND        PTCLDY    57  54  89 S5        30.20R
GRAND RAPIDS   MOCLDY    58  54  86 CALM      30.21R
KALAMAZOO      CLEAR     56  53  90 CALM      30.22R
STURGIS*       CLEAR     54  53  98 CALM      30.20R
THREE RIVERS*  FAIR      55  55  99 CALM      30.22R FOG

$$
OHZ001>008-015>018-024>025-251200-
NORTHWEST OHIO

CITY           SKY/WX    TMP DP  RH WIND       PRES   REMARKS
WAUSEON*       FAIR      52  50  93 CALM      30.20R
DEFIANCE       CLEAR    N/A N/A N/A CALM      30.19R
FINDLAY        CLEAR     58  53  84 NW3       30.18R
TOLEDO EXPRESS CLEAR     56  53  90 CALM      30.19R
TOLEDO METCALF PTCLDY    59  53  80 N5        30.19R
LIMA           CLEAR     54  54 100 CALM      30.19R

$$
AND FOR LAKE MICHIGAN COASTAL AND OPEN LAKE BUOY OBSERVATIONS

STATION/POSITION TEMP    WIND        PRES    VSBY  WAVE
                 AIR SEA DIR/SP/G                  HT/PER
                 (F)     (DEG/KT/KT) (MB)    (MI)  (FT/S)
CALUMET HARBOR    66     140/  3/  4 1021.2R
MICHIGAN CITY     62     130/  5/  6   N/A
BURNS HARBOR      66     110/  3/  5 1022.7R
SAINT JOSEPH      61      CALM  /  3 1023.4
SOUTH LAKE BUOY   70 71  110/  6/  8 1021.9R         2/ 6
4 MI NW BRIDGMAN  64 71  160/ 10/ 12 1022.3          2/ 5
MICHIGAN CITY     66 74  140/  8/ 10   N/A           3/ 5

$$
&&



USA.gov is the U.S. government's official web portal to all federal, state and local government web resources and services.